Location: Spangle
(47.4302°N, 117.3779°W)
Time: 14:47:42
(UTC+00:00)

Envisat - Pass Details

Date: 27 April 2026
Orbit: 761 x 762 km, 98.4° (Epoch: 15 May)

Event Time Altitude Azimuth Distance (km) Brightness Sun altitude
Rises 10:21:04 0° 16° (NNE) 3,235 7.4 -19.7°
Reaches altitude 10° 10:23:25 10° 19° (NNE) 2,305 6.5 -19.4°
Maximum altitude 10:28:28 67° 102° (ESE) 827 3.2 -18.9°
Enters shadow 10:31:28 24° 179° (S) 1,521 4.1 -18.5°
